Honolulu, HI

12:41 PM HST on December 13, 2017 (GMT -1000)
Honolulu International

Weather History for PHNL - December, 2011

Change the Weather History Date:

Monday, December 12, 2011

  Actual Average Record
Temperature  
Mean Temperature 77 °F 75 °F  
Max Temperature 83 °F 81 °F 89 °F (1995)
Min Temperature 71 °F 69 °F 57 °F (1972)
Degree Days  
Heating Degree Days 0 0  
Month to date heating degree days 0 0  
Since 1 July heating degree days 0 0  
Cooling Degree Days 12 10  
Month to date cooling degree days 139 127  
Year to date cooling degree days 4734 4453  
Growing Degree Days 26 (Base 50)    
Moisture  
Dew Point 68 °F    
Average Humidity 73    
Maximum Humidity 87    
Minimum Humidity 58    
Precipitation  
Precipitation 0.01 in 0.11 in 7.89 in (1987)
Month to date precipitation 0.50 1.08  
Year to date precipitation 15.04 14.94  
Snow  
Snow 0.00 in - - ()
Month to date snowfall 0.0  
Since 1 July snowfall 0.0  
Snow Depth 0.00 in    
Sea Level Pressure  
Sea Level Pressure 30.01 in    
Wind  
Wind Speed 11 mph (NE)    
Max Wind Speed 22 mph    
Max Gust Speed 28 mph    
Visibility 10 miles    
Events Rain , Thunderstorm    
T = Trace of Precipitation, MM = Missing Value Source: NWS Daily Summary

Daily Weather History Graph

Daily Weather History Graph

Search for Another Location

Airport or City:

Trip Planner

Search our weather history database for the weather conditions in past years. The results will help you decide how hot, cold, wet, or windy it might be!

Date:

Astronomy

Dec. 12, 2011 Rise Set
Actual Time 6:59 AM HST 5:51 PM HST
Civil Twilight 6:35 AM HST 6:15 PM HST
Nautical Twilight 6:07 AM HST 6:43 PM HST
Astronomical Twilight 5:40 AM HST 7:10 PM HST
Moon 8:06 PM HST (12/12) 8:44 AM HST (12/12)
Length of Visible Light 11h 39m
Length of Day
10h 51m
Waning Gibbous, 95% of the Moon is Illuminated
Dec 12
Waning Gibbous
Dec 17
Last Quarter
Dec 24
New
Dec 31
First Quarter
Jan 8
Full

Hourly Weather History & Observations

Time (HST) Temp. Heat Index Dew Point Humidity Pressure Visibility Wind Dir Wind Speed Gust Speed Precip Events Conditions
12:53 AM 73.0 °F - 68.0 °F 84% 30.05 in 7.0 mi NNE 12.7 mph 16.1 mph 0.01 in Rain Light Rain
1:53 AM 73.0 °F - 69.1 °F 87% 30.04 in 10.0 mi ENE 9.2 mph - 0.00 in Rain Light Rain
2:53 AM 73.0 °F - 69.1 °F 87% 30.01 in 7.0 mi ENE 13.8 mph - 0.00 in Rain Light Rain
3:53 AM 73.0 °F - 68.0 °F 84% 29.99 in 10.0 mi North 6.9 mph - 0.00 in   Mostly Cloudy
4:53 AM 73.0 °F - 68.0 °F 84% 29.98 in 9.0 mi ENE 13.8 mph 19.6 mph 0.00 in Rain Light Rain
5:53 AM 73.0 °F - 68.0 °F 84% 29.98 in 10.0 mi ENE 18.4 mph 21.9 mph 0.00 in   Mostly Cloudy
6:53 AM 73.0 °F - 69.1 °F 87% 30.01 in 10.0 mi NE 13.8 mph - 0.00 in   Mostly Cloudy
7:53 AM 73.9 °F - 68.0 °F 82% 30.02 in 10.0 mi ENE 11.5 mph - 0.00 in Rain Light Rain
8:53 AM 77.0 °F - 68.0 °F 74% 30.04 in 10.0 mi ENE 15.0 mph 20.7 mph 0.00 in   Scattered Clouds
9:53 AM 79.0 °F - 69.1 °F 72% 30.05 in 10.0 mi ENE 13.8 mph 24.2 mph N/A   Scattered Clouds
10:53 AM 81.0 °F 83.8 °F 68.0 °F 65% 30.02 in 10.0 mi ENE 18.4 mph 27.6 mph N/A   Scattered Clouds
11:53 AM 82.0 °F 84.9 °F 68.0 °F 62% 30.01 in 10.0 mi ENE 19.6 mph 25.3 mph N/A   Scattered Clouds
12:53 PM 82.0 °F 84.5 °F 66.9 °F 60% 29.99 in 10.0 mi ENE 16.1 mph 25.3 mph N/A   Scattered Clouds
1:53 PM 81.0 °F 84.1 °F 69.1 °F 67% 29.97 in 10.0 mi ENE 17.3 mph 21.9 mph N/A   Scattered Clouds
2:53 PM 82.0 °F 85.5 °F 69.1 °F 65% 29.96 in 10.0 mi ENE 12.7 mph - N/A   Scattered Clouds
3:53 PM 81.0 °F 83.8 °F 68.0 °F 65% 29.96 in 10.0 mi ENE 12.7 mph 21.9 mph N/A   Mostly Cloudy
4:53 PM 80.1 °F 82.7 °F 68.0 °F 67% 29.97 in 10.0 mi East 11.5 mph - N/A   Scattered Clouds
5:53 PM 78.1 °F - 68.0 °F 71% 29.99 in 10.0 mi ENE 10.4 mph - N/A   Scattered Clouds
6:53 PM 77.0 °F - 69.1 °F 76% 30.01 in 10.0 mi NE 6.9 mph - N/A   Scattered Clouds
7:53 PM 75.9 °F - 69.1 °F 79% 30.02 in 10.0 mi NE 6.9 mph - N/A   Scattered Clouds
8:53 PM 75.9 °F - 70.0 °F 82% 30.03 in 10.0 mi Calm Calm - N/A   Mostly Cloudy
9:53 PM 75.9 °F - 70.0 °F 82% 30.04 in 10.0 mi NNE 5.8 mph - N/A Thunderstorm Thunderstorm
10:28 PM 71.6 °F - 66.2 °F 83% 30.03 in 10.0 mi NE 10.4 mph - 0.00 in Rain Light Rain
10:43 PM 71.6 °F - 68.0 °F 88% 30.04 in 10.0 mi ENE 4.6 mph - 0.00 in Rain , Thunderstorm Light Thunderstorms and Rain
10:53 PM 71.1 °F - 66.9 °F 87% 30.03 in 10.0 mi Calm Calm - 0.00 in Thunderstorm Thunderstorm
11:00 PM 71.6 °F - 66.2 °F 83% 30.03 in 10.0 mi NNE 4.6 mph - N/A Thunderstorm Thunderstorm
11:53 PM 73.0 °F - 66.9 °F 81% 30.03 in 10.0 mi North 4.6 mph - N/A Thunderstorm Thunderstorm